This is the latest recevied weather packets stored in our database for station/object K0WOI. If no packets are shown the sender has not sent any weather packets the latest 10 day(s).
| Time | Temp. | Humidity | Pressure | Rain* | Wind** | Luminosity | Snow |
|---|---|---|---|---|---|---|---|
| 1777606205 | 4.44° C | 89% | 1017.7 hPa | 0 mm | - | 0 W/m² | - |
| 1777605902 | 4.44° C | 87% | 1017.9 hPa | 0 mm | - | 0 W/m² | - |
| 1777605597 | 4.44° C | 86% | 1017.6 hPa | 0 mm | - | 0 W/m² | - |
| 1777605291 | 4.44° C | 85% | 1017.9 hPa | 0 mm | - | 0 W/m² | - |
| 1777604988 | 5° C | 83% | 1017.5 hPa | 0 mm | - | 0 W/m² | - |
| 1777604684 | 5° C | 81% | 1017.7 hPa | 0 mm | - | 0 W/m² | - |
| 1777604381 | 5° C | 77% | 1017.6 hPa | 0 mm | - | 0 W/m² | - |
| 1777604080 | 5° C | 77% | 1017.6 hPa | 0 mm | - | 0 W/m² | - |
| 1777603778 | 5.56° C | 75% | 1017.6 hPa | 0 mm | - | 0 W/m² | - |
| 1777603474 | 5.56° C | 73% | 1017.4 hPa | 0 mm | - | 0 W/m² | - |
| 1777603170 | 5.56° C | 70% | 1017.6 hPa | 0 mm | - | 0 W/m² | - |
| 1777602865 | 5.56° C | 68% | 1017.5 hPa | 0 mm | - | 0 W/m² | - |
| 1777602561 | 6.11° C | 70% | 1017.5 hPa | 0 mm | - | 0 W/m² | - |
| 1777602257 | 6.67° C | 71% | 1017.4 hPa | 0 mm | - | 0 W/m² | - |
| 1777601952 | 6.67° C | 72% | 1017.3 hPa | 0 mm | - | 0 W/m² | - |
| 1777601647 | 7.22° C | 69% | 1017.3 hPa | 0 mm | - | 0 W/m² | - |
| 1777601343 | 7.78° C | 63% | 1017.1 hPa | 0 mm | - | 0 W/m² | - |
| 1777601039 | 8.33° C | 56% | 1017.2 hPa | 0 mm | - | 0 W/m² | - |
| 1777600736 | 8.33° C | 56% | 1017.2 hPa | 0 mm | - | 0 W/m² | - |
| 1777600432 | 8.89° C | 52% | 1017.1 hPa | 0 mm | - | 0 W/m² | - |
| 1777600128 | 8.89° C | 52% | 1017 hPa | 0 mm | - | 0 W/m² | - |
| 1777599824 | 8.89° C | 51% | 1017.3 hPa | 0 mm | - | 0 W/m² | - |
| 1777599520 | 8.89° C | 52% | 1017 hPa | 0 mm | - | 0 W/m² | - |
| 1777599217 | 8.89° C | 53% | 1016.9 hPa | 0 mm | - | 0 W/m² | - |
| 1777598913 | 8.89° C | 52% | 1016.9 hPa | 0 mm | - | 0 W/m² | - |
* Rain latest hour (hover to see other rain measurements)
** Current wind speed in m/s (hover to see current wind gust speed)